sat.trackr.live / text

‹ back to catalog

STARLINK-34450

NORAD 64447 · 2025-130K

PAYLOAD ACTIVE UNKNOWN

§ Identity

Operator
Country
US
Launch date
2025-06-18
Launch site
AFETR
Launch vehicle
Mass (kg)
RCS (m²)

Purposes: comms

External: N2YO · Heavens-Above · Gunter

§ Orbital elements

Epoch: 2026-09-20T06:03:56.629728Z

Period
93.85 min
Inclination
53.1577°
Eccentricity
0.0001399
Mean motion
15.34394507 rev/d
Perigee alt
461.8 km
Apogee alt
463.7 km
Semi-major
6,840.9 km
B*
1.2468e-4
RAAN
262.5361°
Arg perigee
95.0439°
Mean anomaly
265.0723°
Rev number
7,052

§ Raw data

STARLINK-344501 64447U 25130K   26263.25273877  .00003838  00000+0  12468-3 0  99912 64447  53.1577 262.5361 0001399  95.0439 265.0723 15.34394507 70522

JSON: /api/v1/satellites/64447 · /tle

For live sub-satellite position, see the globe view (requires WebGL).

§ Visibility from observer

Set your observer location to see the next 7 days of passes ≥ 10°. The values pass through the URL so the page stays shareable.

No JS? Fill the form by hand. The geolocation button needs JavaScript.